This is the latest recevied weather packets stored in our database for station/object K5IDL. If no packets are shown the sender has not sent any weather packets the latest 1 day(s).
| Time | Temp. | Humidity | Pressure | Rain* | Wind** | Luminosity | Snow |
|---|---|---|---|---|---|---|---|
| 1778006974 | 29.44° C | 64% | 1005.8 hPa | 0 mm | 0 m/s | 254 W/m² | - |
| 1778006671 | 29.44° C | 64% | 1005.8 hPa | 0 mm | 0.45 m/s, 52° | 247 W/m² | - |
| 1778006368 | 29.44° C | 65% | 1006.1 hPa | 0 mm | 0.45 m/s, 341° | 224 W/m² | - |
| 1778006064 | 29.44° C | 66% | 1006 hPa | 0 mm | 0.89 m/s, 214° | 250 W/m² | - |
| 1778005762 | 28.89° C | 66% | 1005.9 hPa | 0 mm | 0 m/s | 222 W/m² | - |
| 1778005459 | 28.33° C | 67% | 1006 hPa | 0 mm | 0.45 m/s, 282° | 211 W/m² | - |
| 1778005155 | 28.33° C | 67% | 1005.9 hPa | 0 mm | 0.45 m/s, 278° | 175 W/m² | - |
| 1778004852 | 28.89° C | 67% | 1006 hPa | 0 mm | 0 m/s | 170 W/m² | - |
| 1778004549 | 28.89° C | 66% | 1006.1 hPa | 0 mm | 0.45 m/s, 320° | 238 W/m² | - |
| 1778004245 | 28.89° C | 66% | 1006 hPa | 0 mm | 1.34 m/s, 238° | 334 W/m² | - |
| 1778003942 | 28.89° C | 65% | 1005.9 hPa | 0 mm | 0.45 m/s, 347° | 386 W/m² | - |
| 1778003638 | 28.89° C | 66% | 1005.9 hPa | 0 mm | 0.45 m/s, 326° | 420 W/m² | - |
| 1778003335 | 28.33° C | 67% | 1005.7 hPa | 0 mm | 0.89 m/s, 343° | 393 W/m² | - |
| 1778003033 | 28.33° C | 68% | 1006.1 hPa | 0 mm | 0.45 m/s, 313° | 393 W/m² | - |
| 1778002728 | 28.33° C | 67% | 1006 hPa | 0 mm | 0.89 m/s, 223° | 297 W/m² | - |
| 1778002424 | 27.78° C | 68% | 1005.9 hPa | 0 mm | 0.89 m/s, 337° | 250 W/m² | - |
| 1778002122 | 27.78° C | 69% | 1006 hPa | 0 mm | 1.34 m/s, 152° | 268 W/m² | - |
| 1777999528 | 27.22° C | 69% | 1006.1 hPa | 0 mm | 0.89 m/s, 161° | 251 W/m² | - |
| 1777999226 | 27.22° C | 69% | 1006.1 hPa | 0 mm | 0.89 m/s, 161° | 251 W/m² | - |
| 1777998925 | 27.22° C | 69% | 1006 hPa | 0 mm | 0.89 m/s, 17° | 329 W/m² | - |
| 1777998621 | 26.11° C | 72% | 1006.1 hPa | 0 mm | 0.89 m/s, 99° | 324 W/m² | - |
| 1777998325 | 26.67° C | 71% | 1006 hPa | 0 mm | 2.24 m/s, 222° | 225 W/m² | - |
| 1777998011 | 26.67° C | 70% | 1005.9 hPa | 0 mm | 0.89 m/s, 235° | 190 W/m² | - |
| 1777997708 | 26.67° C | 71% | 1005.7 hPa | 0 mm | 0.45 m/s, 340° | 224 W/m² | - |
| 1777997406 | 26.67° C | 71% | 1005.7 hPa | 0 mm | 0 m/s | 261 W/m² | - |
* Rain latest hour (hover to see other rain measurements)
** Current wind speed in m/s (hover to see current wind gust speed)